Time,TemperatureF,DewpointF,PressureIn,WindDirection,WindDirectionDegrees,WindSpeedMPH,WindSpeedGustMPH,Humidity,HourlyPrecipIn,Conditions,Clouds,dailyrainin,SoftwareType,DateUTC
2013-05-05 00:02:00,53.1,49.1,0.00,NW,315,3.7,8.2,86,0.00,,,0.00,WUHU216CR1000,2013-05-05 07:02:00,
2013-05-05 00:07:00,53.1,49.1,0.00,NW,315,3.7,8.2,86,0.00,,,0.00,WUHU216CR1000,2013-05-05 07:07:00,
2013-05-05 00:17:00,53.1,49.0,0.00,NW,314,3.9,8.2,86,0.00,,,0.00,WUHU216CR1000,2013-05-05 07:17:00,
2013-05-05 00:22:00,53.1,49.0,0.00,NW,314,3.9,8.2,86,0.00,,,0.00,WUHU216CR1000,2013-05-05 07:22:00,
2013-05-05 00:32:00,53.2,49.0,0.00,NW,312,3.3,6.4,85,0.00,,,0.00,WUHU216CR1000,2013-05-05 07:32:00,
2013-05-05 00:37:00,53.2,49.0,0.00,NW,312,3.3,6.4,85,0.00,,,0.00,WUHU216CR1000,2013-05-05 07:37:00,
2013-05-05 00:47:00,53.1,48.8,0.00,NW,311,2.8,8.2,85,0.00,,,0.00,WUHU216CR1000,2013-05-05 07:47:00,
2013-05-05 00:52:00,53.1,48.8,0.00,NW,311,2.8,8.2,85,0.00,,,0.00,WUHU216CR1000,2013-05-05 07:52:00,
2013-05-05 01:02:00,52.9,48.6,0.00,NW,320,2.4,6.4,85,0.00,,,0.00,WUHU216CR1000,2013-05-05 08:02:00,
2013-05-05 01:07:00,52.9,48.6,0.00,NW,320,2.4,6.4,85,0.00,,,0.00,WUHU216CR1000,2013-05-05 08:07:00,
2013-05-05 01:17:00,52.6,48.3,0.00,WNW,291,1.2,4.6,85,0.00,,,0.00,WUHU216CR1000,2013-05-05 08:17:00,
2013-05-05 01:22:00,52.6,48.3,0.00,WNW,291,1.2,4.6,85,0.00,,,0.00,WUHU216CR1000,2013-05-05 08:22:00,
2013-05-05 01:32:00,52.3,48.1,0.00,WNW,297,1.4,4.6,86,0.00,,,0.00,WUHU216CR1000,2013-05-05 08:32:00,
2013-05-05 01:37:00,52.3,48.1,0.00,WNW,297,1.4,4.6,86,0.00,,,0.00,WUHU216CR1000,2013-05-05 08:37:00,
2013-05-05 01:47:00,52.0,47.7,0.00,NNW,329,2.6,6.4,85,0.00,,,0.00,WUHU216CR1000,2013-05-05 08:47:00,
2013-05-05 01:52:00,52.0,47.7,0.00,NNW,329,2.6,6.4,85,0.00,,,0.00,WUHU216CR1000,2013-05-05 08:52:00,
2013-05-05 02:02:00,52.2,47.3,0.00,NW,326,2.7,6.4,83,0.00,,,0.00,WUHU216CR1000,2013-05-05 09:02:00,
2013-05-05 02:07:00,52.2,47.3,0.00,NW,326,2.7,6.4,83,0.00,,,0.00,WUHU216CR1000,2013-05-05 09:07:00,
2013-05-05 02:17:00,52.4,47.3,0.00,NW,312,2.4,6.4,83,0.00,,,0.00,WUHU216CR1000,2013-05-05 09:17:00,
2013-05-05 02:22:00,52.4,47.3,0.00,NW,312,2.4,6.4,83,0.00,,,0.00,WUHU216CR1000,2013-05-05 09:22:00,
2013-05-05 02:32:00,52.8,47.4,0.00,WNW,286,3.0,8.2,82,0.00,,,0.00,WUHU216CR1000,2013-05-05 09:32:00,
2013-05-05 02:37:00,52.8,47.4,0.00,WNW,286,3.0,8.2,82,0.00,,,0.00,WUHU216CR1000,2013-05-05 09:37:00,
2013-05-05 02:47:00,52.7,47.4,0.00,WNW,297,3.3,8.2,82,0.00,,,0.00,WUHU216CR1000,2013-05-05 09:47:00,
2013-05-05 02:52:00,52.7,47.4,0.00,WNW,297,3.3,8.2,82,0.00,,,0.00,WUHU216CR1000,2013-05-05 09:52:00,
2013-05-05 03:02:00,53.1,47.5,0.00,West,273,3.5,8.2,81,0.00,,,0.00,WUHU216CR1000,2013-05-05 10:02:00,
2013-05-05 03:07:00,53.1,47.5,0.00,West,273,3.5,8.2,81,0.00,,,0.00,WUHU216CR1000,2013-05-05 10:07:00,
2013-05-05 03:17:00,53.8,47.3,0.00,WSW,251,5.2,9.9,79,0.00,,,0.00,WUHU216CR1000,2013-05-05 10:17:00,
2013-05-05 03:22:00,53.8,47.3,0.00,WSW,251,5.2,9.9,79,0.00,,,0.00,WUHU216CR1000,2013-05-05 10:22:00,
2013-05-05 03:32:00,54.1,47.3,0.00,WSW,256,3.3,8.2,78,0.00,,,0.00,WUHU216CR1000,2013-05-05 10:32:00,
2013-05-05 03:37:00,54.1,47.3,0.00,WSW,256,3.3,8.2,78,0.00,,,0.00,WUHU216CR1000,2013-05-05 10:37:00,
2013-05-05 03:47:00,54.3,47.4,0.00,WSW,256,2.3,6.4,77,0.00,,,0.00,WUHU216CR1000,2013-05-05 10:47:00,
2013-05-05 03:52:00,54.3,47.4,0.00,WSW,256,2.3,6.4,77,0.00,,,0.00,WUHU216CR1000,2013-05-05 10:52:00,
2013-05-05 04:02:00,54.8,47.6,0.00,WSW,245,2.6,6.4,77,0.00,,,0.00,WUHU216CR1000,2013-05-05 11:02:00,
2013-05-05 04:07:00,54.8,47.6,0.00,WSW,245,2.6,6.4,77,0.00,,,0.00,WUHU216CR1000,2013-05-05 11:07:00,
2013-05-05 04:17:00,55.1,47.8,0.00,SW,222,2.6,6.4,76,0.00,,,0.00,WUHU216CR1000,2013-05-05 11:17:00,
2013-05-05 04:22:00,55.1,47.8,0.00,SW,222,2.6,6.4,76,0.00,,,0.00,WUHU216CR1000,2013-05-05 11:22:00,
2013-05-05 04:32:00,55.2,47.8,0.00,SE,138,1.1,4.6,76,0.00,,,0.00,WUHU216CR1000,2013-05-05 11:32:00,
2013-05-05 04:37:00,55.2,47.8,0.00,SE,138,1.1,4.6,76,0.00,,,0.00,WUHU216CR1000,2013-05-05 11:37:00,
2013-05-05 04:47:00,55.3,48.0,0.00,NE,35,0.7,2.8,76,0.00,,,0.00,WUHU216CR1000,2013-05-05 11:47:00,
2013-05-05 04:52:00,55.3,48.0,0.00,NE,35,0.7,2.8,76,0.00,,,0.00,WUHU216CR1000,2013-05-05 11:52:00,
2013-05-05 05:02:00,55.3,47.9,0.00,East,88,1.4,6.4,76,0.00,,,0.00,WUHU216CR1000,2013-05-05 12:02:00,
2013-05-05 05:07:00,55.3,47.9,0.00,East,88,1.4,6.4,76,0.00,,,0.00,WUHU216CR1000,2013-05-05 12:07:00,
2013-05-05 05:17:00,55.7,47.6,0.00,ESE,122,3.0,6.4,74,0.00,,,0.00,WUHU216CR1000,2013-05-05 12:17:00,
2013-05-05 05:22:00,55.7,47.6,0.00,ESE,122,3.0,6.4,74,0.00,,,0.00,WUHU216CR1000,2013-05-05 12:22:00,
2013-05-05 05:32:00,55.7,47.6,0.00,South,184,2.3,8.2,74,0.00,,,0.00,WUHU216CR1000,2013-05-05 12:32:00,
2013-05-05 05:37:00,55.7,47.6,0.00,South,184,2.3,8.2,74,0.00,,,0.00,WUHU216CR1000,2013-05-05 12:37:00,
2013-05-05 05:47:00,55.8,47.7,0.00,South,190,2.5,6.4,74,0.00,,,0.00,WUHU216CR1000,2013-05-05 12:47:00,
2013-05-05 05:52:00,55.8,47.7,0.00,South,190,2.5,6.4,74,0.00,,,0.00,WUHU216CR1000,2013-05-05 12:52:00,
2013-05-05 06:02:00,56.0,47.5,0.00,South,190,3.8,8.2,73,0.00,,,0.00,WUHU216CR1000,2013-05-05 13:02:00,
2013-05-05 06:07:00,56.0,47.5,0.00,South,190,3.8,8.2,73,0.00,,,0.00,WUHU216CR1000,2013-05-05 13:07:00,
2013-05-05 06:17:00,56.1,47.5,0.00,SW,217,3.8,8.2,73,0.00,,,0.00,WUHU216CR1000,2013-05-05 13:17:00,
2013-05-05 06:22:00,56.1,47.5,0.00,SW,217,3.8,8.2,73,0.00,,,0.00,WUHU216CR1000,2013-05-05 13:22:00,
2013-05-05 06:32:00,56.2,47.4,0.00,SW,218,3.5,8.2,72,0.00,,,0.00,WUHU216CR1000,2013-05-05 13:32:00,
2013-05-05 06:37:00,56.2,47.4,0.00,SW,218,3.5,8.2,72,0.00,,,0.00,WUHU216CR1000,2013-05-05 13:37:00,
2013-05-05 06:47:00,56.5,47.3,0.00,SSW,205,4.6,9.9,71,0.00,,,0.00,WUHU216CR1000,2013-05-05 13:47:00,
2013-05-05 06:52:00,56.5,47.3,0.00,SSW,205,4.6,9.9,71,0.00,,,0.00,WUHU216CR1000,2013-05-05 13:52:00,
2013-05-05 07:02:00,56.5,47.3,0.00,SSW,205,4.6,9.9,71,0.00,,,0.00,WUHU216CR1000,2013-05-05 14:02:00,
2013-05-05 07:07:00,56.5,47.3,0.00,SSW,205,4.6,9.9,71,0.00,,,0.00,WUHU216CR1000,2013-05-05 14:07:00,
2013-05-05 07:17:00,56.9,47.4,0.00,SSW,200,5.9,11.7,71,0.00,,,0.00,WUHU216CR1000,2013-05-05 14:17:00,
2013-05-05 07:22:00,56.9,47.4,0.00,SSW,200,5.9,11.7,71,0.00,,,0.00,WUHU216CR1000,2013-05-05 14:22:00,
2013-05-05 07:32:00,57.1,47.6,0.00,South,187,5.1,9.9,71,0.00,,,0.00,WUHU216CR1000,2013-05-05 14:32:00,
2013-05-05 07:37:00,57.1,47.6,0.00,South,187,5.1,9.9,71,0.00,,,0.00,WUHU216CR1000,2013-05-05 14:37:00,
2013-05-05 07:47:00,57.5,47.6,0.00,South,190,5.3,11.7,69,0.00,,,0.00,WUHU216CR1000,2013-05-05 14:47:00,
2013-05-05 07:52:00,57.5,47.6,0.00,South,190,5.3,11.7,69,0.00,,,0.00,WUHU216CR1000,2013-05-05 14:52:00,
2013-05-05 08:02:00,57.9,47.6,0.00,SSW,196,5.6,13.5,68,0.00,,,0.00,WUHU216CR1000,2013-05-05 15:02:00,
2013-05-05 08:07:00,57.9,47.6,0.00,SSW,196,5.6,13.5,68,0.00,,,0.00,WUHU216CR1000,2013-05-05 15:07:00,
2013-05-05 08:17:00,58.4,47.3,0.00,South,187,7.0,15.3,67,0.00,,,0.00,WUHU216CR1000,2013-05-05 15:17:00,
2013-05-05 08:22:00,58.4,47.3,0.00,South,187,7.0,15.3,67,0.00,,,0.00,WUHU216CR1000,2013-05-05 15:22:00,
2013-05-05 08:32:00,58.5,47.4,0.00,SSW,197,6.1,13.5,66,0.00,,,0.00,WUHU216CR1000,2013-05-05 15:32:00,
2013-05-05 08:37:00,58.5,47.4,0.00,SSW,197,6.1,13.5,66,0.00,,,0.00,WUHU216CR1000,2013-05-05 15:37:00,
2013-05-05 08:47:00,58.3,47.3,0.00,SSW,199,6.4,13.5,67,0.00,,,0.00,WUHU216CR1000,2013-05-05 15:47:00,
2013-05-05 08:52:00,58.3,47.3,0.00,SSW,199,6.4,13.5,67,0.00,,,0.00,WUHU216CR1000,2013-05-05 15:52:00,
2013-05-05 09:02:00,58.6,47.2,0.00,South,191,6.3,13.5,66,0.00,,,0.00,WUHU216CR1000,2013-05-05 16:02:00,
2013-05-05 09:07:00,58.6,47.2,0.00,South,191,6.3,13.5,66,0.00,,,0.00,WUHU216CR1000,2013-05-05 16:07:00,
2013-05-05 09:17:00,58.7,47.2,0.00,South,186,6.5,13.5,66,0.00,,,0.00,WUHU216CR1000,2013-05-05 16:17:00,
2013-05-05 09:22:00,58.7,47.2,0.00,South,186,6.5,13.5,66,0.00,,,0.00,WUHU216CR1000,2013-05-05 16:22:00,
2013-05-05 09:32:00,58.8,47.1,0.00,South,188,6.8,15.3,65,0.00,,,0.00,WUHU216CR1000,2013-05-05 16:32:00,
2013-05-05 09:37:00,58.8,47.1,0.00,South,188,6.8,15.3,65,0.00,,,0.00,WUHU216CR1000,2013-05-05 16:37:00,
2013-05-05 09:47:00,59.5,47.3,0.00,SSW,203,7.1,15.3,64,0.00,,,0.00,WUHU216CR1000,2013-05-05 16:47:00,
2013-05-05 09:52:00,59.5,47.3,0.00,SSW,203,7.1,15.3,64,0.00,,,0.00,WUHU216CR1000,2013-05-05 16:52:00,
2013-05-05 10:02:00,60.0,47.4,0.00,SSW,197,6.4,15.3,63,0.00,,,0.00,WUHU216CR1000,2013-05-05 17:02:00,
2013-05-05 10:07:00,60.0,47.4,0.00,SSW,197,6.4,15.3,63,0.00,,,0.00,WUHU216CR1000,2013-05-05 17:07:00,
2013-05-05 10:17:00,60.2,47.3,0.00,SSW,196,7.1,15.3,62,0.00,,,0.00,WUHU216CR1000,2013-05-05 17:17:00,
2013-05-05 10:22:00,60.2,47.3,0.00,SSW,196,7.1,15.3,62,0.00,,,0.00,WUHU216CR1000,2013-05-05 17:22:00,
2013-05-05 10:32:00,61.0,47.4,0.00,South,187,6.5,13.5,61,0.00,,,0.00,WUHU216CR1000,2013-05-05 17:32:00,
2013-05-05 10:37:00,61.0,47.4,0.00,South,187,6.5,13.5,61,0.00,,,0.00,WUHU216CR1000,2013-05-05 17:37:00,
2013-05-05 10:47:00,61.5,47.4,0.00,SSW,205,6.7,15.3,60,0.00,,,0.00,WUHU216CR1000,2013-05-05 17:47:00,
2013-05-05 10:52:00,61.5,47.4,0.00,SSW,205,6.7,15.3,60,0.00,,,0.00,WUHU216CR1000,2013-05-05 17:52:00,
2013-05-05 11:02:00,64.7,48.1,0.00,South,171,7.5,15.3,55,0.00,,,0.00,WUHU216CR1000,2013-05-05 18:02:00,
2013-05-05 11:07:00,64.7,48.1,0.00,South,171,7.5,15.3,55,0.00,,,0.00,WUHU216CR1000,2013-05-05 18:07:00,
2013-05-05 11:17:00,63.1,47.6,0.00,SSE,162,6.3,11.7,57,0.00,,,0.00,WUHU216CR1000,2013-05-05 18:17:00,
2013-05-05 11:22:00,63.1,47.6,0.00,SSE,162,6.3,11.7,57,0.00,,,0.00,WUHU216CR1000,2013-05-05 18:22:00,
2013-05-05 11:32:00,61.5,47.6,0.00,South,176,6.3,13.5,60,0.00,,,0.00,WUHU216CR1000,2013-05-05 18:32:00,
2013-05-05 11:37:00,61.5,47.6,0.00,South,176,6.3,13.5,60,0.00,,,0.00,WUHU216CR1000,2013-05-05 18:37:00,
2013-05-05 11:47:00,60.9,47.9,0.00,South,176,6.1,13.5,62,0.00,,,0.00,WUHU216CR1000,2013-05-05 18:47:00,
2013-05-05 11:52:00,60.9,47.9,0.00,South,176,6.1,13.5,62,0.00,,,0.00,WUHU216CR1000,2013-05-05 18:52:00,
2013-05-05 12:02:00,60.3,47.8,0.00,SSW,196,4.5,9.9,63,0.00,,,0.00,WUHU216CR1000,2013-05-05 19:02:00,
2013-05-05 12:07:00,60.3,47.8,0.00,SSW,196,4.5,9.9,63,0.00,,,0.00,WUHU216CR1000,2013-05-05 19:07:00,
2013-05-05 12:17:00,59.7,48.2,0.00,SSW,205,4.4,9.9,66,0.00,,,0.00,WUHU216CR1000,2013-05-05 19:17:00,
2013-05-05 12:22:00,59.7,48.2,0.00,SSW,205,4.4,9.9,66,0.00,,,0.00,WUHU216CR1000,2013-05-05 19:22:00,
2013-05-05 12:32:00,59.4,48.9,0.00,South,187,2.2,4.6,68,0.00,,,0.00,WUHU216CR1000,2013-05-05 19:32:00,
2013-05-05 12:37:00,59.4,48.9,0.00,South,187,2.2,4.6,68,0.00,,,0.00,WUHU216CR1000,2013-05-05 19:37:00,
2013-05-05 12:47:00,60.5,48.7,0.00,SW,223,3.5,8.2,65,0.00,,,0.00,WUHU216CR1000,2013-05-05 19:47:00,
2013-05-05 12:52:00,60.5,48.7,0.00,SW,223,3.5,8.2,65,0.00,,,0.00,WUHU216CR1000,2013-05-05 19:52:00,
2013-05-05 13:02:00,64.1,48.2,0.00,SW,230,3.8,8.2,56,0.00,,,0.00,WUHU216CR1000,2013-05-05 20:02:00,
2013-05-05 13:07:00,64.1,48.2,0.00,SW,230,3.8,8.2,56,0.00,,,0.00,WUHU216CR1000,2013-05-05 20:07:00,
2013-05-05 13:17:00,65.2,47.5,0.00,WNW,299,3.7,6.4,53,0.00,,,0.00,WUHU216CR1000,2013-05-05 20:17:00,
2013-05-05 13:22:00,65.2,47.5,0.00,WNW,299,3.7,6.4,53,0.00,,,0.00,WUHU216CR1000,2013-05-05 20:22:00,
2013-05-05 13:32:00,67.0,47.3,0.00,WNW,298,3.5,9.9,49,0.00,,,0.00,WUHU216CR1000,2013-05-05 20:32:00,
2013-05-05 13:37:00,67.0,47.3,0.00,WNW,298,3.5,9.9,49,0.00,,,0.00,WUHU216CR1000,2013-05-05 20:37:00,
2013-05-05 13:47:00,65.7,46.4,0.00,SSW,203,3.6,8.2,50,0.00,,,0.00,WUHU216CR1000,2013-05-05 20:47:00,
2013-05-05 13:52:00,65.7,46.4,0.00,SSW,203,3.6,8.2,50,0.00,,,0.00,WUHU216CR1000,2013-05-05 20:52:00,
2013-05-05 14:02:00,66.5,46.8,0.00,South,170,3.3,8.2,49,0.00,,,0.00,WUHU216CR1000,2013-05-05 21:02:00,
2013-05-05 14:07:00,66.5,46.8,0.00,South,170,3.3,8.2,49,0.00,,,0.00,WUHU216CR1000,2013-05-05 21:07:00,
2013-05-05 14:17:00,66.0,47.0,0.00,SSW,201,3.6,8.2,50,0.00,,,0.00,WUHU216CR1000,2013-05-05 21:17:00,
2013-05-05 14:22:00,66.0,47.0,0.00,SSW,201,3.6,8.2,50,0.00,,,0.00,WUHU216CR1000,2013-05-05 21:22:00,
2013-05-05 14:32:00,65.1,47.4,0.00,South,181,3.7,8.2,53,0.00,,,0.00,WUHU216CR1000,2013-05-05 21:32:00,
2013-05-05 14:37:00,65.1,47.4,0.00,South,181,3.7,8.2,53,0.00,,,0.00,WUHU216CR1000,2013-05-05 21:37:00,
2013-05-05 14:47:00,64.6,47.6,0.00,SSW,202,3.8,8.2,54,0.00,,,0.00,WUHU216CR1000,2013-05-05 21:47:00,
2013-05-05 14:52:00,64.6,47.6,0.00,SSW,202,3.8,8.2,54,0.00,,,0.00,WUHU216CR1000,2013-05-05 21:52:00,
2013-05-05 15:02:00,64.1,48.3,0.00,WSW,237,4.9,8.2,56,0.00,,,0.00,WUHU216CR1000,2013-05-05 22:02:00,
2013-05-05 15:07:00,64.1,48.3,0.00,WSW,237,4.9,8.2,56,0.00,,,0.00,WUHU216CR1000,2013-05-05 22:07:00,
2013-05-05 15:17:00,64.0,48.5,0.00,WSW,238,5.6,13.5,57,0.00,,,0.00,WUHU216CR1000,2013-05-05 22:17:00,
2013-05-05 15:22:00,64.0,48.5,0.00,WSW,238,5.6,13.5,57,0.00,,,0.00,WUHU216CR1000,2013-05-05 22:22:00,
2013-05-05 15:32:00,63.8,48.8,0.00,WSW,244,6.8,11.7,58,0.00,,,0.00,WUHU216CR1000,2013-05-05 22:32:00,
2013-05-05 15:37:00,63.8,48.8,0.00,WSW,244,6.8,11.7,58,0.00,,,0.00,WUHU216CR1000,2013-05-05 22:37:00,
2013-05-05 15:47:00,64.3,48.6,0.00,WSW,247,6.2,11.7,57,0.00,,,0.00,WUHU216CR1000,2013-05-05 22:47:00,
2013-05-05 15:52:00,64.3,48.6,0.00,WSW,247,6.2,11.7,57,0.00,,,0.00,WUHU216CR1000,2013-05-05 22:52:00,
2013-05-05 16:02:00,64.2,48.3,0.00,WSW,242,5.5,9.9,56,0.00,,,0.00,WUHU216CR1000,2013-05-05 23:02:00,
2013-05-05 16:07:00,64.2,48.3,0.00,WSW,242,5.5,9.9,56,0.00,,,0.00,WUHU216CR1000,2013-05-05 23:07:00,
2013-05-05 16:17:00,64.7,48.3,0.00,WSW,253,3.9,8.2,55,0.00,,,0.00,WUHU216CR1000,2013-05-05 23:17:00,
2013-05-05 16:22:00,64.7,48.3,0.00,WSW,253,3.9,8.2,55,0.00,,,0.00,WUHU216CR1000,2013-05-05 23:22:00,
2013-05-05 16:32:00,65.2,48.1,0.00,WSW,243,4.6,8.2,54,0.00,,,0.00,WUHU216CR1000,2013-05-05 23:32:00,
2013-05-05 16:37:00,65.2,48.1,0.00,WSW,243,4.6,8.2,54,0.00,,,0.00,WUHU216CR1000,2013-05-05 23:37:00,
2013-05-05 16:47:00,65.3,48.2,0.00,SW,236,4.1,8.2,54,0.00,,,0.00,WUHU216CR1000,2013-05-05 23:47:00,
2013-05-05 16:52:00,65.3,48.2,0.00,SW,236,4.1,8.2,54,0.00,,,0.00,WUHU216CR1000,2013-05-05 23:52:00,
2013-05-05 17:02:00,64.7,48.5,0.00,SW,226,4.7,8.2,56,0.00,,,0.00,WUHU216CR1000,2013-05-06 00:02:00,
2013-05-05 17:07:00,64.7,48.5,0.00,SW,226,4.7,8.2,56,0.00,,,0.00,WUHU216CR1000,2013-05-06 00:07:00,
2013-05-05 17:17:00,64.3,48.5,0.00,SSW,198,3.5,8.2,57,0.00,,,0.00,WUHU216CR1000,2013-05-06 00:17:00,
2013-05-05 17:22:00,64.3,48.5,0.00,SSW,198,3.5,8.2,57,0.00,,,0.00,WUHU216CR1000,2013-05-06 00:22:00,
2013-05-05 17:32:00,63.4,48.8,0.00,SW,231,5.1,8.2,59,0.00,,,0.00,WUHU216CR1000,2013-05-06 00:32:00,
2013-05-05 17:37:00,63.4,48.8,0.00,SW,231,5.1,8.2,59,0.00,,,0.00,WUHU216CR1000,2013-05-06 00:37:00,
2013-05-05 17:47:00,62.7,48.8,0.00,SW,221,3.9,8.2,60,0.00,,,0.00,WUHU216CR1000,2013-05-06 00:47:00,
2013-05-05 17:52:00,62.7,48.8,0.00,SW,221,3.9,8.2,60,0.00,,,0.00,WUHU216CR1000,2013-05-06 00:52:00,
2013-05-05 18:01:00,62.4,48.9,0.00,SW,235,4.5,8.2,61,0.00,,,0.00,WUHU216CR1000,2013-05-06 01:01:00,
2013-05-05 18:02:00,62.4,48.9,0.00,SW,235,4.5,8.2,61,0.00,,,0.00,WUHU216CR1000,2013-05-06 01:02:00,
2013-05-05 18:07:00,62.4,48.9,0.00,SW,235,4.5,8.2,61,0.00,,,0.00,WUHU216CR1000,2013-05-06 01:07:00,
2013-05-05 18:17:00,62.4,48.9,0.00,WSW,250,3.5,6.4,61,0.00,,,0.00,WUHU216CR1000,2013-05-06 01:17:00,
2013-05-05 18:22:00,62.4,48.9,0.00,WSW,250,3.5,6.4,61,0.00,,,0.00,WUHU216CR1000,2013-05-06 01:22:00,
2013-05-05 18:31:00,62.6,49.0,0.00,WSW,253,2.7,6.4,61,0.00,,,0.00,WUHU216CR1000,2013-05-06 01:31:00,
2013-05-05 18:32:00,62.6,49.0,0.00,WSW,253,2.7,6.4,61,0.00,,,0.00,WUHU216CR1000,2013-05-06 01:32:00,
2013-05-05 18:37:00,62.6,49.0,0.00,WSW,253,2.7,6.4,61,0.00,,,0.00,WUHU216CR1000,2013-05-06 01:37:00,
2013-05-05 18:47:00,62.8,49.1,0.00,West,259,2.9,6.4,61,0.00,,,0.00,WUHU216CR1000,2013-05-06 01:47:00,
2013-05-05 18:52:00,62.8,49.1,0.00,West,259,2.9,6.4,61,0.00,,,0.00,WUHU216CR1000,2013-05-06 01:52:00,
2013-05-05 19:02:00,63.0,49.3,0.00,NNW,328,2.1,4.6,61,0.00,,,0.00,WUHU216CR1000,2013-05-06 02:02:00,
2013-05-05 19:07:00,63.0,49.3,0.00,NNW,328,2.1,4.6,61,0.00,,,0.00,WUHU216CR1000,2013-05-06 02:07:00,
2013-05-05 19:16:00,62.7,49.3,0.00,NW,324,2.6,6.4,61,0.00,,,0.00,WUHU216CR1000,2013-05-06 02:16:00,
2013-05-05 19:17:00,62.7,49.3,0.00,NW,324,2.6,6.4,61,0.00,,,0.00,WUHU216CR1000,2013-05-06 02:17:00,
2013-05-05 19:22:00,62.7,49.3,0.00,NW,324,2.6,6.4,61,0.00,,,0.00,WUHU216CR1000,2013-05-06 02:22:00,
2013-05-05 19:32:00,62.1,49.1,0.00,NW,320,3.2,6.4,62,0.00,,,0.00,WUHU216CR1000,2013-05-06 02:32:00,
2013-05-05 19:37:00,62.1,49.1,0.00,NW,320,3.2,6.4,62,0.00,,,0.00,WUHU216CR1000,2013-05-06 02:37:00,
2013-05-05 19:46:00,61.8,49.2,0.00,West,281,2.4,6.4,63,0.00,,,0.00,WUHU216CR1000,2013-05-06 02:46:00,
2013-05-05 19:47:00,61.8,49.2,0.00,West,281,2.4,6.4,63,0.00,,,0.00,WUHU216CR1000,2013-05-06 02:47:00,
2013-05-05 19:52:00,61.8,49.2,0.00,West,281,2.4,6.4,63,0.00,,,0.00,WUHU216CR1000,2013-05-06 02:52:00,
2013-05-05 20:01:00,61.0,49.1,0.00,NW,304,2.0,4.6,65,0.00,,,0.00,WUHU216CR1000,2013-05-06 03:01:00,
2013-05-05 20:02:00,61.0,49.1,0.00,NW,304,2.0,4.6,65,0.00,,,0.00,WUHU216CR1000,2013-05-06 03:02:00,
2013-05-05 20:07:00,61.0,49.1,0.00,NW,304,2.0,4.6,65,0.00,,,0.00,WUHU216CR1000,2013-05-06 03:07:00,
2013-05-05 20:17:00,60.2,49.2,0.00,NNW,329,0.4,4.6,67,0.00,,,0.00,WUHU216CR1000,2013-05-06 03:17:00,
2013-05-05 20:22:00,60.2,49.2,0.00,NNW,329,0.4,4.6,67,0.00,,,0.00,WUHU216CR1000,2013-05-06 03:22:00,
2013-05-05 20:31:00,59.6,49.3,0.00,NW,313,2.4,6.4,68,0.00,,,0.00,WUHU216CR1000,2013-05-06 03:31:00,
2013-05-05 20:32:00,59.6,49.3,0.00,NW,313,2.4,6.4,68,0.00,,,0.00,WUHU216CR1000,2013-05-06 03:32:00,
2013-05-05 20:37:00,59.6,49.3,0.00,NW,313,2.4,6.4,68,0.00,,,0.00,WUHU216CR1000,2013-05-06 03:37:00,
2013-05-05 20:47:00,59.3,49.4,0.00,WNW,295,2.1,4.6,70,0.00,,,0.00,WUHU216CR1000,2013-05-06 03:47:00,
2013-05-05 20:52:00,59.3,49.4,0.00,WNW,295,2.1,4.6,70,0.00,,,0.00,WUHU216CR1000,2013-05-06 03:52:00,
2013-05-05 21:02:00,58.7,49.3,0.00,WNW,302,3.1,6.4,71,0.00,,,0.00,WUHU216CR1000,2013-05-06 04:02:00,
2013-05-05 21:07:00,58.7,49.3,0.00,WNW,302,3.1,6.4,71,0.00,,,0.00,WUHU216CR1000,2013-05-06 04:07:00,
2013-05-05 21:17:00,58.6,49.1,0.00,WNW,290,2.5,4.6,71,0.00,,,0.00,WUHU216CR1000,2013-05-06 04:17:00,
2013-05-05 21:22:00,58.6,49.1,0.00,WNW,290,2.5,4.6,71,0.00,,,0.00,WUHU216CR1000,2013-05-06 04:22:00,
2013-05-05 21:32:00,57.8,49.0,0.00,West,270,1.6,4.6,73,0.00,,,0.00,WUHU216CR1000,2013-05-06 04:32:00,
2013-05-05 21:37:00,57.8,49.0,0.00,West,270,1.6,4.6,73,0.00,,,0.00,WUHU216CR1000,2013-05-06 04:37:00,
2013-05-05 21:47:00,57.2,49.1,0.00,NW,309,1.9,6.4,74,0.00,,,0.00,WUHU216CR1000,2013-05-06 04:47:00,
2013-05-05 21:52:00,57.2,49.1,0.00,NW,309,1.9,6.4,74,0.00,,,0.00,WUHU216CR1000,2013-05-06 04:52:00,
2013-05-05 22:02:00,57.0,49.0,0.00,West,273,1.2,4.6,75,0.00,,,0.00,WUHU216CR1000,2013-05-06 05:02:00,
2013-05-05 22:07:00,57.0,49.0,0.00,West,273,1.2,4.6,75,0.00,,,0.00,WUHU216CR1000,2013-05-06 05:07:00,
2013-05-05 22:17:00,56.4,48.9,0.00,WNW,300,2.2,6.4,76,0.00,,,0.00,WUHU216CR1000,2013-05-06 05:17:00,
2013-05-05 22:22:00,56.4,48.9,0.00,WNW,300,2.2,6.4,76,0.00,,,0.00,WUHU216CR1000,2013-05-06 05:22:00,
2013-05-05 22:32:00,56.3,48.9,0.00,West,276,2.6,6.4,76,0.00,,,0.00,WUHU216CR1000,2013-05-06 05:32:00,
2013-05-05 22:37:00,56.3,48.9,0.00,West,276,2.6,6.4,76,0.00,,,0.00,WUHU216CR1000,2013-05-06 05:37:00,
2013-05-05 22:47:00,56.4,49.0,0.00,NW,312,2.8,6.4,76,0.00,,,0.00,WUHU216CR1000,2013-05-06 05:47:00,
2013-05-05 22:52:00,56.4,49.0,0.00,NW,312,2.8,6.4,76,0.00,,,0.00,WUHU216CR1000,2013-05-06 05:52:00,
2013-05-05 23:02:00,56.8,49.1,0.00,North,351,3.5,8.2,76,0.00,,,0.00,WUHU216CR1000,2013-05-06 06:02:00,
2013-05-05 23:07:00,56.8,49.1,0.00,North,351,3.5,8.2,76,0.00,,,0.00,WUHU216CR1000,2013-05-06 06:07:00,
2013-05-05 23:17:00,56.9,49.1,0.00,NW,305,2.1,4.6,75,0.00,,,0.00,WUHU216CR1000,2013-05-06 06:17:00,
2013-05-05 23:22:00,56.9,49.1,0.00,NW,305,2.1,4.6,75,0.00,,,0.00,WUHU216CR1000,2013-05-06 06:22:00,
2013-05-05 23:32:00,56.6,49.2,0.00,NW,305,2.4,6.4,76,0.00,,,0.00,WUHU216CR1000,2013-05-06 06:32:00,
2013-05-05 23:37:00,56.6,49.2,0.00,NW,305,2.4,6.4,76,0.00,,,0.00,WUHU216CR1000,2013-05-06 06:37:00,
2013-05-05 23:47:00,57.0,49.3,0.00,NNW,328,4.8,9.9,75,0.00,,,0.00,WUHU216CR1000,2013-05-06 06:47:00,
2013-05-05 23:52:00,57.0,49.3,0.00,NNW,328,4.8,9.9,75,0.00,,,0.00,WUHU216CR1000,2013-05-06 06:52:00,